Simultaneous Nadir Overpasses (SNOs) Predictions

Prediction of SNOs between GOES-15 and NOAA-20 Satellite Orbit:

Table of predicted SNOs for the next 14.0 days since TLE Epoch: 2/3/2024
Index Date Time (GOES-15) GOES-15 Lat,Lon NOAA-20 Lat,Lon Distance(km) Time Diff (sec)
1 02/03/2024 09:11:32 0.03, 61.66 0.48, 63.70 232.64 80
2 02/04/2024 21:33:21 -0.02, 61.55 0.65, 58.42 356.40 80
3 02/05/2024 21:11:57 -0.01, 61.54 -0.35, 62.95 161.09 80
4 02/07/2024 09:33:53 -0.02, 61.62 -0.88, 57.66 451.35 80
5 02/08/2024 09:17:49 -0.01, 61.61 0.12, 62.19 65.67 80
6 02/10/2024 21:20:53 0.01, 61.51 0.00, 61.44 7.53 80
7 02/13/2024 09:21:25 -0.00, 61.59 -0.22, 60.68 104.19 80
8 02/14/2024 09:05:21 -0.00, 61.58 0.79, 65.21 412.73 80
9 02/15/2024 21:27:10 0.00, 61.48 0.32, 59.92 177.18 80
10 02/16/2024 21:05:46 0.00, 61.48 -0.69, 64.45 339.14 80
